Regional Weather Roundup
Issued by NWS

Home | Current Version | Previous Version | Graphics & Text | Print | Product List | Glossary On
Versions: 1 2 3 4 5 6 7 8 9 10 11 12 13 14 15 16 17 18 19 20 21 22 23 24 25 26 27 28 29 30 31 32 33 34 35 36 37 38 39 40 41 42 43 44 45 46 47 48 49 50
000
ASUS43 KOAX 252010
RWRNE

WEATHER ROUNDUP FOR NEBRASKA
NATIONAL WEATHER SERVICE OMAHA NE
300 PM CDT MON SEP 25 2017

NOTES: SATELLITE DATA IS BEING USED TO AUGMENT CLOUD COVER ABOVE
       12000 FEET.
       "FAIR" INDICATES FEW OR NO CLOUDS BELOW 12,000 FEET WITH NO
       SIGNIFICANT WEATHER AND/OR OBSTRUCTIONS TO VISIBILITY.


NEZ001>004-019>022-054>056-252100-
NEBRASKA PANHANDLE

CITY           SKY/WX    TMP DP  RH WIND       PRES   REMARKS
SCOTTSBLUFF    CLOUDY    52  41  66 W7        30.09F
ALLIANCE       CLOUDY    50  41  71 N9        30.09R
CHADRON        CLOUDY    52  40  63 CALM      30.10F
GORDON         CLOUDY    49  42  75 N8        30.09S
KIMBALL        CLOUDY    49  42  77 N3        30.11R
SIDNEY         CLOUDY    51  42  71 N13       30.09S
$$

NEZ057>060-069>072-079>082-252100-
SOUTHWEST NEBRASKA

CITY           SKY/WX    TMP DP  RH WIND       PRES   REMARKS
NORTH PLATTE   CLOUDY    52  48  86 N10       30.06R
IMPERIAL       RAIN      51  47  86 NE7       30.06F
LEXINGTON      CLOUDY    54  49  82 NE12      30.03F
MCCOOK         CLOUDY    53  49  86 NE12      30.03F
OGALLALA       CLOUDY    54  46  76 N12       30.07S
$$

NEZ005>010-023>029-035>040-094-252100-
NORTH CENTRAL NEBRASKA

CITY           SKY/WX    TMP DP  RH WIND       PRES   REMARKS
VALENTINE      CLOUDY    53  45  74 N9        30.08R
AINSWORTH      CLOUDY    49  47  93 N12       30.08R
BROKEN BOW     CLOUDY    52  47  83 N13       30.03S
O`NEILL        CLOUDY    50  50 100 N13       30.05R
ORD            CLOUDY    51  48  89 N10       30.02S
THEDFORD       CLOUDY    50  46  87 N7        30.08R
$$

NEZ041-046>049-061>064-073>077-083>087-252100-
SOUTH CENTRAL NEBRASKA

CITY           SKY/WX    TMP DP  RH WIND       PRES   REMARKS
GRAND ISLAND   LGT RAIN  53  53 100 N12       30.00F FOG
AURORA         CLOUDY    53  53 100 N8        29.99S FOG
HASTINGS       CLOUDY    53  51  93 N12       30.00F FOG
HEBRON         DRIZZLE   60  59  97 N7        29.94F
HOLDREGE       LGT RAIN  53  51  94 N12       30.01F
KEARNEY        LGT RAIN  53  52  96 N10       30.02S FOG
YORK           CLOUDY    57  57 100 N6        29.97S
$$

NEZ011>018-030>034-042>045-252100-
NORTHEAST NEBRASKA

CITY           SKY/WX    TMP DP  RH WIND       PRES   REMARKS
NORFOLK        LGT RAIN  54  54 100 N13       29.99R FOG
ALBION         CLOUDY    54  52  92 N9        30.01R
BLAIR          CLOUDY    64  63  97 NW6       29.92F
COLUMBUS       CLOUDY    57  56  96 NW8       29.98R
FREMONT        CLOUDY    61  60  96 NW8G17    29.93F
TEKAMAH        LGT RAIN  62  60  93 N9        29.92F
WAYNE          DRIZZLE   56  54  92 N10       29.95F
$$

NEZ050>053-065>068-078-088>093-252100-
SOUTHEAST NEBRASKA

CITY           SKY/WX    TMP DP  RH WIND       PRES   REMARKS
LINCOLN        CLOUDY    62  60  93 NE7       29.95R
OMAHA EPPLEY   CLOUDY    68  63  84 N9        29.91F
BEATRICE       RAIN      63  62  98 CALM      29.95S
FALLS CITY     CLOUDY    73  69  87 NW6       29.87R
NEBRASKA CITY  CLOUDY    73  69  88 NW8       29.91R
PLATTSMOUTH    CLOUDY    67  66  98 NW9       29.91S
$$

NEZ044-045-051>053-067-252100-
OMAHA AREA

CITY           SKY/WX    TMP DP  RH WIND       PRES   REMARKS
OMAHA EPPLEY   CLOUDY    68  63  84 N9        29.91F
BLAIR          CLOUDY    64  63  97 NW6       29.92F
FREMONT        CLOUDY    61  60  96 NW8G17    29.93F
MILLARD        CLOUDY    65  63  94 NW7       29.92F
OFFUTT AFB     RAIN      68  64  88 W12       29.90S
PLATTSMOUTH    CLOUDY    67  66  98 NW9       29.91S
WAHOO          LGT RAIN  61  60  97 N6        29.93F
$$




USA.gov is the U.S. government's official web portal to all federal, state and local government web resources and services.